ARIANE 40 R/B (20443 NORAD) Tracking and Keplerian Element Data

This shows tracking and keplerian element data for the satellite.

Feedback or suggestion? Click here.




ElementValue
Catalog20443
NameARIANE 40 R/B
Epoch Orbit77960
Epoch Day12.76945531
Epoch Year2024
RAAN81.5236
Inclination98.4154
Eccentricity0.0011121
Argument of Perigee52.4
Mean Anonmoly307.8196
Mean Motion14.38750199
Decay Rate5.42E-06
L11 20443U 90005H 24012.76945531 .00000542 00000+0 19055-3 0 9999
L22 20443 98.4154 81.5236 0011121 52.4000 307.8196 14.38750199779608



Live tracking and technical data element details for ARIANE 40 R/B (NORAD 20443). ARIANE 40 R/B can be tracked NOW for your location showing map with azimuth and elevation plus other details from your city location.







IsCatalogInMostPopularTable: catalog: 20443, numindb: 157
Update: records affected: 1



GetName: 20443 ARIANE 40 R/B

Hit Count: updated at: Fri, 19 Apr 2024 11:53:17 GMT